Location: Grange Rosano
(44.4500°N, 6.9667°E)
Time: 10:01:48
(UTC+00:00)

ADEOS II - Pass Details

Date: 05 October 2022
Orbit: 799 x 800 km, 98.6° (Epoch: 01 December)

Event Time Altitude Azimuth Distance (km) Brightness Sun altitude
Rises 00:58:41 0° 22° (NNE) 3,319 6.0 -44.8°
Reaches altitude 10° 01:01:13 10° 31° (NNE) 2,384 5.1 -44.5°
Enters shadow 01:01:45 13° 34° (NNE) 2,198 4.9 -44.5°
